FRA50 EGHH-EGNV

Flight info

Callsign FRA50
Flight time N/A
Altitude 33000
Route SAM Q41 SILVA UM605 DTY UY250 RIMTO
Aircraft CL60/M-SBDE1E2E3FGHIJ1J4J5J7M3RWXYZ/LB1V1D1

Departure

Time 2026-05-05 16:44
Airport Bournemouth Airport (EGHH)

Arrival

Time N/A
Airport Teesside International Airport (EGNV)
Time Latitude Longitude Altitude Speed Heading
2026-05-05 16:14 50.78456 -1.83312 42 ft 0 kts 268°
2026-05-05 16:39 50.78456 -1.83313 42 ft 1 kts 268°
2026-05-05 16:39 50.78421 -1.83343 42 ft 11 kts 187°
2026-05-05 16:40 50.78358 -1.83388 42 ft 10 kts 266°
2026-05-05 16:40 50.78389 -1.83507 42 ft 13 kts 288°
2026-05-05 16:40 50.78414 -1.83669 42 ft 16 kts 284°
2026-05-05 16:40 50.78444 -1.83858 42 ft 18 kts 283°
2026-05-05 16:41 50.78469 -1.84030 42 ft 12 kts 269°
2026-05-05 16:41 50.78429 -1.84167 42 ft 15 kts 229°
2026-05-05 16:41 50.78355 -1.84319 42 ft 19 kts 236°
2026-05-05 16:41 50.78302 -1.84501 42 ft 19 kts 238°
2026-05-05 16:42 50.78199 -1.84658 42 ft 22 kts 212°
2026-05-05 16:42 50.78126 -1.84834 42 ft 12 kts 269°
2026-05-05 16:42 50.78079 -1.84924 42 ft 12 kts 198°
2026-05-05 16:42 50.77970 -1.84985 42 ft 17 kts 200°
2026-05-05 16:43 50.77895 -1.85012 42 ft 4 kts 145°
2026-05-05 16:43 50.77887 -1.84964 42 ft 0 kts 71°
2026-05-05 16:43 50.77887 -1.84963 42 ft 1 kts 72°
2026-05-05 16:43 50.77913 -1.84814 42 ft 46 kts 75°
2026-05-05 16:44 50.78085 -1.83782 43 ft 144 kts 74°
2026-05-05 16:44 50.78347 -1.82039 566 ft 178 kts 75°
2026-05-05 16:44 50.78510 -1.79977 1497 ft 196 kts 86°
2026-05-05 16:44 50.78582 -1.77900 2487 ft 201 kts 77°
2026-05-05 16:45 50.78845 -1.75493 2874 ft 244 kts 76°
2026-05-05 16:45 50.79179 -1.72799 2966 ft 251 kts 75°
2026-05-05 16:45 50.79521 -1.70072 2983 ft 251 kts 75°
2026-05-05 16:45 50.79857 -1.67375 2989 ft 258 kts 75°
2026-05-05 16:46 50.80309 -1.64495 3836 ft 279 kts 64°
2026-05-05 16:46 50.81356 -1.62116 5618 ft 268 kts 49°
2026-05-05 16:46 50.82517 -1.59908 7154 ft 269 kts 49°
2026-05-05 16:46 50.83690 -1.57649 8555 ft 273 kts 49°
2026-05-05 16:47 50.84888 -1.55336 9871 ft 280 kts 49°
2026-05-05 16:47 50.86116 -1.52959 11165 ft 286 kts 50°
2026-05-05 16:47 50.87360 -1.50546 12447 ft 290 kts 50°
2026-05-05 16:47 50.88621 -1.48094 13639 ft 295 kts 50°
2026-05-05 16:48 50.89919 -1.45565 14776 ft 300 kts 50°
2026-05-05 16:48 50.91217 -1.43035 15848 ft 306 kts 50°
2026-05-05 16:48 50.92558 -1.40414 16902 ft 311 kts 50°
2026-05-05 16:48 50.93928 -1.37735 17903 ft 316 kts 50°
2026-05-05 16:49 50.95443 -1.35246 18830 ft 321 kts 36°
2026-05-05 16:49 50.97430 -1.33695 19705 ft 326 kts 16°
2026-05-05 16:49 50.99375 -1.32882 20453 ft 332 kts 14°
2026-05-05 16:49 51.01095 -1.32177 21125 ft 336 kts 14°
2026-05-05 16:50 51.05877 -1.30189 22907 ft 345 kts 14°
2026-05-05 16:50 51.08202 -1.29220 23705 ft 350 kts 14°
2026-05-05 16:50 51.10535 -1.28245 24506 ft 354 kts 14°
2026-05-05 16:51 51.12760 -1.27314 25172 ft 361 kts 14°
2026-05-05 16:51 51.15185 -1.26297 25835 ft 367 kts 14°
2026-05-05 16:51 51.17664 -1.25256 26465 ft 374 kts 14°
2026-05-05 16:51 51.20148 -1.24211 27089 ft 379 kts 14°
2026-05-05 16:52 51.22712 -1.23131 27703 ft 384 kts 14°
2026-05-05 16:52 51.25265 -1.22053 28283 ft 390 kts 14°
2026-05-05 16:52 51.27907 -1.20937 28849 ft 395 kts 14°
2026-05-05 16:52 51.30547 -1.19819 29397 ft 399 kts 14°
2026-05-05 16:53 51.33239 -1.18678 29940 ft 404 kts 14°
2026-05-05 16:53 51.35980 -1.17515 30441 ft 409 kts 14°
2026-05-05 16:53 51.38703 -1.16358 30931 ft 413 kts 15°
2026-05-05 16:53 51.41479 -1.15176 31396 ft 416 kts 14°
2026-05-05 16:54 51.44265 -1.13988 31869 ft 418 kts 15°
2026-05-05 16:54 51.47031 -1.12808 32328 ft 420 kts 14°
2026-05-05 16:54 51.49855 -1.11601 32735 ft 423 kts 14°
2026-05-05 16:54 51.52720 -1.10374 32931 ft 431 kts 14°
2026-05-05 16:55 51.55624 -1.09130 32953 ft 442 kts 14°
2026-05-05 16:55 51.58642 -1.07835 32951 ft 453 kts 14°
2026-05-05 16:55 51.64885 -1.05635 32949 ft 471 kts
2026-05-05 16:56 51.71379 -1.03997 32958 ft 477 kts
2026-05-05 16:56 51.77896 -1.02335 32947 ft 477 kts
2026-05-05 16:57 51.84396 -1.01239 32952 ft 475 kts 359°
2026-05-05 16:57 51.90838 -1.02502 32950 ft 474 kts 347°
2026-05-05 16:58 51.97264 -1.04607 32958 ft 474 kts 347°
2026-05-05 16:58 52.03703 -1.06711 32944 ft 474 kts 347°
2026-05-05 16:59 52.10136 -1.08818 32958 ft 473 kts 347°
2026-05-05 16:59 52.15776 -1.10641 32956 ft 474 kts 349°
2026-05-05 17:00 52.20648 -1.11192 32961 ft 475 kts